Torna al catalogo

DELTA 1 DEB

AttivoSSO
NORAD 10642·DEBRIS·🇺🇸 United States

Lanciato Jul 29, 1976 da Vandenberg Space Force Base

Loading…

Prossimi Passaggi (prossime 24 ore)

TLE

AggiornatoSource: Space-Track

Epoca: Sep 13, 2026, 19:16 UTC

1 10642U 76077C   26256.80289691 -.00000008  00000-0  33340-3 0  9999
2 10642 102.2554 205.3193 0102045 233.4921 183.6659 12.21840239235856

Traccia DELTA 1 DEB in tempo reale con AllMySat

Download on the App Store